CW9944 Porsgrunn NO current weather conditions

sailwx.info

Wind from 292

Air temperature 5.6° C
Dewpoint 5.1° C

Last reported at 2014-Oct-23 05:44 UTC.
Time now 2014-Oct-23 06:41 UTC

Location: N 59°07' E 009°39'.
View on Google Maps.

See reports from other nearby stations

  
Tides and Currents Weather Stations Pressure Air Temp Water Temp Dewpoint Dewpoint Depression Visibility Wind Speed Wind Dir Waves Ship Positions
date/time (UTC)wind fromknots sea level pressurealtimeterstation pressurevisibilityair tempwater tempwave heightnotes
2014-Oct-23 05:44 292 5.6
2014-Oct-22 20:54 292 5.6
2014-Oct-22 20:44 310 2 gusting 2 5.6
2014-Oct-22 20:34 315 1 gusting 2 5.6
2014-Oct-22 20:24 282 0 gusting 1 5.6
2014-Oct-22 20:14 292 1 gusting 5 5.6
2014-Oct-22 20:04 270 1 gusting 4 5.6
2014-Oct-22 19:54 253 1 gusting 2 5.6
2014-Oct-22 19:44 292 0 gusting 1 5.6
2014-Oct-22 19:34 270 5.6
2014-Oct-22 19:24 258 5.6
2014-Oct-22 19:14 269 0 gusting 1 5.6
2014-Oct-22 19:04 248 1 gusting 1 6.1
2014-Oct-22 18:54 295 6.1
2014-Oct-22 18:44 301 6.1
2014-Oct-22 18:34 270 2 gusting 4 6.1
2014-Oct-22 18:24 281 0 gusting 2 6.1
2014-Oct-22 18:14 293 2 gusting 2 6.1
2014-Oct-22 18:04 292 0 gusting 0 6.1
2014-Oct-22 17:54 286 0 gusting 2 6.1
2014-Oct-22 17:44 292 2 gusting 2 6.1
2014-Oct-22 17:34 292 0 gusting 4 6.1
2014-Oct-22 17:24 300 6.1
2014-Oct-22 17:14 315 6.1
2014-Oct-22 17:04 6.7
2014-Oct-22 16:54 301 6.7
2014-Oct-22 16:44 292 0 gusting 5 6.7
2014-Oct-22 16:34 270 0 gusting 4 6.7
2014-Oct-22 16:24 287 0 gusting 2 6.7
2014-Oct-22 16:14 338 1 gusting 1 6.7
2014-Oct-22 16:04 248 6.7
2014-Oct-22 15:54 308 0 gusting 1 6.7
2014-Oct-22 15:44 264 6.7
2014-Oct-22 15:34 248 6.7
2014-Oct-22 15:24 292 1 gusting 1 7.2
2014-Oct-22 15:14 270 1 gusting 5 7.2
2014-Oct-22 15:04 270 7.2
2014-Oct-22 14:54 307 0 gusting 1 7.2
2014-Oct-22 14:44 251 1 gusting 5 7.2
2014-Oct-22 14:34 315 3 gusting 4 7.8
2014-Oct-22 14:24 272 7.8
2014-Oct-22 14:14 292 7.8
2014-Oct-22 14:04 292 2 gusting 4 7.8
2014-Oct-22 13:54 7.8
2014-Oct-22 13:44 315 0 gusting 2 7.8
2014-Oct-22 13:34 270 7.8
2014-Oct-22 13:24 7.8
2014-Oct-22 13:14 338 0 gusting 2 7.8
2014-Oct-22 13:04 270 0 gusting 2 7.8
2014-Oct-22 12:54 239 7.8
2014-Oct-22 12:44 315 7.8
2014-Oct-22 12:34 315 7.8
2014-Oct-22 12:24 292 7.8
2014-Oct-22 12:14 7.8
2014-Oct-22 12:04 7.8
2014-Oct-22 11:54 7.8
2014-Oct-22 11:44 338 0 gusting 2 7.8
2014-Oct-22 11:34 315 4 gusting 5 7.8
2014-Oct-22 11:24 327 1 gusting 2 7.8
2014-Oct-22 11:14 315 1 gusting 5 7.8
2014-Oct-22 11:04 7.8
2014-Oct-22 10:54 315 1 gusting 1 7.8
2014-Oct-22 10:44 292 0 gusting 2 8.3
2014-Oct-22 10:34 022 1 gusting 2 8.3
2014-Oct-22 10:24 337 8.3
2014-Oct-22 10:14 8.3
2014-Oct-22 10:04 270 8.3
2014-Oct-22 09:54 270 8.3
2014-Oct-22 09:44 024 8.3
2014-Oct-22 09:34 315 4 gusting 5 8.3
2014-Oct-22 09:24 315 1 gusting 4 8.3
2014-Oct-22 09:14 8.3
2014-Oct-22 09:04 338 0 gusting 1 8.3
2014-Oct-22 08:54 331 1 gusting 5 8.3
2014-Oct-22 08:44 348 8.3
2014-Oct-22 08:34 292 1 gusting 2 8.3
2014-Oct-22 08:24 022 0 gusting 2 8.3
2014-Oct-22 08:14 338 2 gusting 2 8.3
2014-Oct-22 08:04 338 0 gusting 2 8.3
2014-Oct-22 07:54 338 0 gusting 5 8.3
2014-Oct-22 07:44 315 4 gusting 5 8.3
2014-Oct-22 07:34 043 7 gusting 7 8.3
2014-Oct-22 07:24 073 2 gusting 6 8.9
2014-Oct-22 07:14 305 2 gusting 6 8.9
2014-Oct-22 07:04 270 3 gusting 6 8.9
2014-Oct-22 06:54 338 1 gusting 6 8.9
2014-Oct-22 06:44 8.9
2014-Oct-22 06:34 333 8.9
2014-Oct-22 06:24 289 1 gusting 4 9.4
2014-Oct-22 06:14 312 0 gusting 4 9.4
2014-Oct-22 06:04 248 0 gusting 4 9.4
2014-Oct-22 05:54 328 0 gusting 5 9.4
2014-Oct-22 05:44 270 0 gusting 5 9.4
2014-Oct-22 05:34 270 5 gusting 6 9.4
2014-Oct-22 05:24 285 1 gusting 2 9.4
2014-Oct-22 05:14 292 2 gusting 2 9.4
2014-Oct-22 05:04 292 2 gusting 2 9.4
2014-Oct-22 04:54 347 2 gusting 2 9.4
2014-Oct-22 04:44 248 9.4
2014-Oct-22 04:34 315 1 gusting 5 9.4
2014-Oct-22 04:24 292 1 gusting 2 9.4
2014-Oct-22 04:14 315 1 gusting 6 9.4
2014-Oct-22 04:04 338 2 gusting 6 9.4
2014-Oct-22 03:54 333 1 gusting 1 9.4
2014-Oct-22 03:44 292 9.4
2014-Oct-22 03:34 9.4
2014-Oct-22 03:24 260 1 gusting 2 9.4
2014-Oct-22 03:14 315 9.4
2014-Oct-22 03:04 270 1 gusting 6 9.4
2014-Oct-22 02:54 338 0 gusting 2 9.4
2014-Oct-22 02:44 298 9.4
2014-Oct-22 02:34 357 3 gusting 5 9.4
2014-Oct-22 02:24 343 2 gusting 4 9.4
2014-Oct-22 02:14 9.4
2014-Oct-22 02:04 339 4 gusting 6 9.4
2014-Oct-22 01:54 343 0 gusting 5 9.4
2014-Oct-22 01:44 292 3 gusting 5 10.0
2014-Oct-22 01:34 338 4 gusting 4 10.0
2014-Oct-22 01:24 286 0 gusting 4 10.0
2014-Oct-22 01:14 315 0 gusting 4 10.0
2014-Oct-22 01:04 302 2 gusting 6 9.4
2014-Oct-22 00:54 315 0 gusting 6 9.4
2014-Oct-22 00:44 281 9.4
2014-Oct-22 00:34 273 1 gusting 4 9.4
2014-Oct-22 00:24 260 9.4
2014-Oct-22 00:14 315 2 gusting 4 9.4
2014-Oct-22 00:04 292 2 gusting 4 9.4
2014-Oct-21 23:54 315 1 gusting 2 9.4
2014-Oct-21 23:44 315 1 gusting 4 9.4
2014-Oct-21 23:34 321 2 gusting 5 9.4
2014-Oct-21 23:24 9.4
2014-Oct-21 23:14 315 9.4
2014-Oct-21 23:04 022 0 gusting 5 9.4
2014-Oct-21 22:54 285 2 gusting 2 9.4
2014-Oct-21 22:44 315 0 gusting 5 9.4
2014-Oct-21 22:34 315 0 gusting 2 9.4
2014-Oct-21 22:24 307 9.4
2014-Oct-21 22:14 338 2 gusting 2 9.4
2014-Oct-21 22:04 331 0 gusting 5 9.4
2014-Oct-21 21:54 338 1 gusting 6 9.4
2014-Oct-21 21:44 292 1 gusting 6 9.4
2014-Oct-21 21:34 239 1 gusting 4 9.4
2014-Oct-21 21:24 9.4
2014-Oct-21 21:14 9.4
2014-Oct-21 21:04 346 0 gusting 10 9.4
2014-Oct-21 20:54 315 2 gusting 4 9.4
2014-Oct-21 20:44 248 1 gusting 7 9.4
2014-Oct-21 20:34 348 4 gusting 5 9.4
2014-Oct-21 20:24 039 1 gusting 2 9.4
2014-Oct-21 20:14 338 0 gusting 2 9.4
2014-Oct-21 20:04 349 4 gusting 6 9.4
2014-Oct-21 19:54 338 0 gusting 2 9.4
2014-Oct-21 19:44 338 2 gusting 4 9.4
2014-Oct-21 19:34 300 2 gusting 5 9.4
2014-Oct-21 19:24 338 0 gusting 5 9.4
2014-Oct-21 19:14 9.4
2014-Oct-21 19:04 356 4 gusting 6 10.0
2014-Oct-21 18:54 10.0
2014-Oct-21 18:44 359 3 gusting 6 10.0
2014-Oct-21 18:34 254 1 gusting 6 10.0
2014-Oct-21 18:24 338 5 gusting 6 10.0
2014-Oct-21 18:14 022 10.0
2014-Oct-21 18:04 308 4 gusting 6 10.0
2014-Oct-21 17:54 338 1 gusting 4 10.0
2014-Oct-21 17:44 338 10.0
2014-Oct-21 17:34 248 1 gusting 4 10.0
2014-Oct-21 17:24 10.0
2014-Oct-21 17:14 315 0 gusting 5 10.0
2014-Oct-21 17:04 302 5 gusting 7 10.6
2014-Oct-21 16:54 315 2 gusting 6 10.6
2014-Oct-21 16:44 068 4 gusting 8 10.6
2014-Oct-21 16:34 10.6
2014-Oct-21 16:24 315 2 gusting 11 10.6
2014-Oct-21 16:14 338 9 gusting 11 10.6
2014-Oct-21 16:04 028 4 gusting 8 10.6
2014-Oct-21 15:54 10.6
2014-Oct-21 15:44 338 4 gusting 6 10.6
2014-Oct-21 15:34 327 6 gusting 6 10.6
2014-Oct-21 15:24 338 4 gusting 6 10.6
2014-Oct-21 15:14 315 0 gusting 11 10.6
2014-Oct-21 15:04 355 11 gusting 11 10.6
2014-Oct-21 14:54 338 7 gusting 8 10.6
2014-Oct-21 14:34 356 4 gusting 10 10.6
2014-Oct-21 14:24 338 1 gusting 6 10.6
2014-Oct-21 14:14 10.6
2014-Oct-21 14:04 339 2 gusting 5 10.6
2014-Oct-21 13:54 315 3 gusting 5 10.6
2014-Oct-21 13:34 315 0 gusting 12 10.6
2014-Oct-21 13:24 10.6
2014-Oct-21 13:14 280 1 gusting 11 10.6
2014-Oct-21 13:04 028 1 gusting 7 10.6
2014-Oct-21 12:54 338 2 gusting 6 10.6
2014-Oct-21 12:44 338 5 gusting 6 10.6
2014-Oct-21 12:34 10.6
2014-Oct-21 12:24 10.0
2014-Oct-21 12:14 270 10.0
2014-Oct-21 12:04 022 2 gusting 5 9.4
2014-Oct-21 11:54 315 0 gusting 2 9.4
2014-Oct-21 11:44 338 0 gusting 0 8.9
2014-Oct-21 11:34 292 8.3
2014-Oct-21 11:24 112 8.3
2014-Oct-21 11:14 315 8.3
2014-Oct-21 11:04 316 0 gusting 0 7.8
2014-Oct-21 10:54 019 7.8
2014-Oct-21 10:44 315 7.8
2014-Oct-21 10:34 112 7.8
2014-Oct-21 10:24 068 7.8
2014-Oct-21 10:14 225 7.2
2014-Oct-21 10:04 248 7.2
2014-Oct-21 09:54 248 0 gusting 0 7.2
2014-Oct-21 09:44 308 6.7
2014-Oct-21 09:34 248 6.7
2014-Oct-21 09:24 225 6.1
2014-Oct-21 09:14 105 6.1
2014-Oct-21 09:04 112 6.1
2014-Oct-21 08:54 112 6.1
2014-Oct-21 08:44 112 5.6
2014-Oct-21 08:34 112 5.6
2014-Oct-21 08:24 112 5.6
2014-Oct-21 08:14 068 5.6
2014-Oct-21 08:04 045 5.6
2014-Oct-21 07:54 068 5.0
2014-Oct-21 07:44 068 5.0
2014-Oct-21 07:34 068 5.0